Volver al catálogo

COSMOS 2484

ActivoMilitarPO
NORAD 39059·PAYLOAD·🇷🇺 Russia

Lanzado Jan 15, 2013 desde Plesetsk Cosmodrome

Loading…

Próximos Pases (próximas 24 horas)

TLE

ActualizadoSource: Space-Track

Época: Sep 14, 2026, 13:47 UTC

1 39059U 13001C   26257.57438759  .00000076  00000-0  47833-3 0  9992
2 39059  82.5068 166.3336 0025258 196.9089 163.1152 12.42942401619665

Sigue COSMOS 2484 en tiempo real con AllMySat

Download on the App Store